Home > Weather > El Jadida > Past weeks

Flag for Morocco Past Weather in El Jadida, Morocco — Yesterday and Last 2 Weeks

Now
57 °F

Passing clouds.


Feels Like: 57 °F
Forecast: 67 / 78 °F
Wind: 5 mph from East

Location: Nouasseur

Current Time: May 31, 2016 at 6:58:35 AM

Latest Report: May 31, 2016 at 6:30 AM


Visibility: N/A

Pressure: 30.07 "Hg

Humidity: 94%

Dew Point: 55 °F

Location of El JadidaLocation

Past Weather in El Jadida — Graph

°F

El Jadida Temperature Yesterday

Maximum temperature yesterday: 72 °F (at 1:00 PM)
Minimum temperature yesterday: 57 °F (at 6:00 AM)
Average temperature yesterday: 65 °F

High & Low Weather Summary for the Past Weeks

 TemperatureHumidityPressure
High91 °F (May 23, 1:30 PM)100% (May 18, 2:00 AM)30.24 "Hg (May 18, 2:00 AM)
Low55 °F (May 20, 4:30 AM)33% (May 23, 6:00 PM)29.89 "Hg (May 17, 2:30 PM)
Average68 °F73%30.05 "Hg
* Reported May 16 5:00 AM — May 31 5:30 AM, El Jadida, Weather by CustomWeather, © 2016

Note: Actual official high and low records may vary slightly from our data, if they occured in-between our weather recording intervals... More about our weather records

Advertising

El Jadida Weather History for the Previous 24 Hours

Scroll right to see more
 ConditionsComfort  
Time TempWeatherWind HumidityBarometerVisibility
5:30 AM
Tue, May 31
57 °FPassing clouds.5 mph88%30.04 "HgN/A
5:00 AM57 °FPassing clouds.5 mph88%30.04 "HgN/A
4:30 AM59 °FPassing clouds.5 mph88%30.04 "HgN/A
4:00 AM59 °FPassing clouds.6 mph88%30.07 "HgN/A
3:30 AM61 °FPassing clouds.7 mph83%30.07 "HgN/A
3:00 AM61 °FPassing clouds.7 mph83%30.09 "HgN/A
2:00 AM63 °FPassing clouds.7 mph83%30.09 "HgN/A
1:30 AM63 °FPassing clouds.8 mph83%30.09 "HgN/A
1:00 AM63 °FPassing clouds.8 mph83%30.09 "HgN/A
12:30 AM63 °FPassing clouds.8 mph83%30.09 "HgN/A
12:00 AM63 °FPassing clouds.8 mph83%30.09 "HgN/A
11:30 PM
Mon, May 30
64 °FPassing clouds.8 mph78%30.12 "HgN/A
11:00 PM64 °FPassing clouds.10 mph73%30.12 "HgN/A
10:30 PM64 °FPassing clouds.12 mph73%30.09 "HgN/A
10:00 PM64 °FPassing clouds.14 mph73%30.09 "HgN/A
9:30 PM64 °FPassing clouds.14 mph73%30.09 "HgN/A
9:00 PM64 °FPassing clouds.13 mph73%30.09 "HgN/A
8:30 PM64 °FScattered clouds.14 mph73%30.09 "HgN/A
8:00 PM66 °FScattered clouds.13 mph68%30.07 "HgN/A
7:30 PM66 °FScattered clouds.16 mph68%30.07 "HgN/A
7:00 PM68 °FPassing clouds.17 mph64%30.07 "HgN/A
6:30 PM70 °FPassing clouds.17 mph57%30.07 "HgN/A
6:00 PM70 °FPassing clouds.14 mph57%30.07 "HgN/A
5:30 PM70 °FPassing clouds.16 mph57%30.07 "HgN/A
5:00 PM72 °FScattered clouds.16 mph53%30.07 "HgN/A
4:30 PM72 °FScattered clouds.17 mph50%30.07 "HgN/A
4:00 PM72 °FScattered clouds.16 mph53%30.07 "HgN/A
3:30 PM72 °FScattered clouds.17 mph53%30.07 "HgN/A
3:00 PM72 °FScattered clouds.17 mph57%30.07 "HgN/A
2:30 PM72 °FScattered clouds.15 mph53%30.07 "HgN/A
2:00 PM72 °FScattered clouds.16 mph57%30.07 "HgN/A
1:30 PM72 °FScattered clouds.18 mph53%30.07 "HgN/A
1:00 PM72 °FScattered clouds.15 mph53%30.09 "HgN/A
12:00 PM70 °FScattered clouds.13 mph57%30.09 "HgN/A
11:30 AM70 °FPartly sunny.12 mph57%30.09 "HgN/A
11:00 AM68 °FPartly sunny.12 mph56%30.09 "HgN/A
10:30 AM66 °FPartly sunny.13 mph64%30.12 "HgN/A
10:00 AM66 °FPartly sunny.12 mph64%30.12 "HgN/A
9:30 AM66 °FScattered clouds.12 mph68%30.12 "HgN/A
9:00 AM63 °FScattered clouds.10 mph77%30.12 "HgN/A
8:30 AM61 °FScattered clouds.8 mph83%30.12 "HgN/A
8:00 AM61 °FScattered clouds.9 mph83%30.12 "HgN/A
7:30 AM59 °FScattered clouds.7 mph88%30.12 "HgN/A
7:00 AM57 °FScattered clouds.6 mph88%30.09 "HgN/A
6:30 AM57 °FScattered clouds.5 mph88%30.09 "HgN/A
6:00 AM57 °FPassing clouds.5 mph82%30.09 "HgN/A
Weather by CustomWeather, © 2016

See weather overviewHow to use our weather pages